Eads, CO

11:53 PM MDT on April 29, 2017 (GMT -0600)
Kit Carson | | Change Station
Active Advisory: Winter Storm Warning

Elev 4301 ft 38.77 °N, 102.79 °W | Updated 1 second ago

Snow
Snow
36.3 °F
Feels Like 24 °F
N
26.8
Wind Variable Wind from NNE
Gusts 42.0 mph

Today
High -- | Low -- °F
--% Chance of Precip.
Yesterday
High -- | Low -- °F
Precip. -- in
Pressure 29.95 in
Visibility 3.0 miles
Clouds Overcast 3600 ft
Windchill 24 °F
Dew Point 24 °F
Humidity 63%
Rainfall 0.13 in
Snow Depth Not available.
5:56 AM 7:41 PM
Waxing Crescent, 19% visible
SPECI KLAA 300523Z AUTO 36026G32KT 3SM -SN OVC036 01/M02 A2995 RMK AO2 PK WND 01032/0507 P0000 T00111017
Pressure 29.95 in
Visibility 3.0 miles
Clouds Overcast 3600 ft
Windchill 24 °F
Dew Point 24 °F
Humidity 63%
Rainfall 0.13 in
Snow Depth Not available.
5:56 AM 7:41 PM
Waxing Crescent, 19% visible
SPECI KLAA 300523Z AUTO 36026G32KT 3SM -SN OVC036 01/M02 A2995 RMK AO2 PK WND 01032/0507 P0000 T00111017

Get Your Daily Forecast Email!

Thanks for signing up!

Be on the lookout for a verification email in your inbox.

You'll start receiving severe weather alerts in your inbox..

×

10-Day Weather Forecast

Almanac

Astronomy

Apr. 29, 2017 Rise Set
Actual Time
Civil Twilight
Nautical Twilight
Astronomical Twilight
Moon
Length of Visible Light
Length of Day
Tomorrow will be .
, % of the Moon is Illuminated

Today's Extremes

State Highs State Lows

Community

WunderPhotos

WunderBlog® & News

Nearby

Air Quality

  Air Quality AQ Index Pollutant
Not available.

Snow Depth

Station Depth Elevation

Earthquake Activity

City Distance Mag. Time & Date
Minimum magnitude displayed is 2.5.

Coastal Water Temperatures

Place Temperature

Stations

Nearby Weather Stations

Station Location Temp. Windchill Dew Point Humidity Wind Precip. Elev Updated Type
                   

Watches & Warnings

Winter Storm Warning
Issued: 10:16 PM MDT Apr. 29, 2017 – National Weather Service

... Winter Storm Warning remains in effect until 1 PM MDT Sunday...

* location... Crowley, Otero, Kiowa, bent, Prowers and Baca
counties.

* Cause and timing... snow, heavy at times will continue overnight,
before tapering off by midday Sunday.

* Total snow accumulation... 8 to 16 inches by early Sunday
morning.

* Wind... north to northeast winds 20 to 40 mph.

* Impact... snow and blowing snow will create hazardous travel
conditions. In addition, heavy wet snow may produce tree and
power line damage. A prolonged period of below freezing
temperatures is likely, which may cause damage to cold
sensitive plants and outdoor irrigation systems.

Precautionary/preparedness actions...

A Winter Storm Warning for heavy snow means severe winter weather
conditions are expected or occurring. Significant amounts of
snow are forecast that will make travel dangerous. Only travel in
an emergency. If you must travel, keep an extra flashlight, food,
and water in your vehicle in case of an emergency.